Regional Weather Roundup
Issued by NWS

Home | Current Version | Previous Version | Text Only | Print | Product List | Glossary On
Versions: 1 2 3 4 5 6 7 8 9 10 11 12 13 14 15 16 17 18 19 20 21 22 23 24 25 26 27
000
ASUS46 KSEW 190210
RWRWA

WASHINGTON REGIONAL WEATHER ROUNDUP
NATIONAL WEATHER SERVICE SEATTLE WA
700 PM PDT FRI AUG 18 2017

NOTE:"FAIR" INDICATES FEW OR NO CLOUDS BELOW 12,000 FEET WITH NO
SIGNIFICANT WEATHER AND/OR OBSTRUCTIONS TO VISIBILITY.

WAZ507-509-555>559-190300-
SEATTLE, TACOMA, EVERETT, AND VICINITY

CITY           SKY/WX    TMP DP  RH WIND       PRES   REMARKS
EVERETT        PTSUNNY   67  58  72 N5        30.15S
BOEING FIELD   PTSUNNY   72  57  59 VRB7      30.11F
RENTON         PTSUNNY   73  56  54 N5        30.11S
SEATAC AIRPORT PTSUNNY   69  55  60 W3        30.13S
JBLM-MCCHORD   CLOUDY    72  61  69 NW5       30.12S
PUYALLUP       CLOUDY    72  61  68 CALM      30.13S
BREMERTON      CLOUDY    71  55  56 NE6       30.13S
JBLM-FT LEWIS  PTSUNNY   73  62  66 SW7       30.11S
TACOMA NARROWS PTSUNNY   71  58  63 VRB3      30.12S
$$

WAZ001-503-506-510-514-515-190300-
NORTH INTERIOR

CITY           SKY/WX    TMP DP  RH WIND       PRES   REMARKS
BELLINGHAM     PTSUNNY   66  58  75 S10       30.10S
FRIDAY HARBOR  SUNNY     68  54  60 SW8       30.10F
EASTSOUND      SUNNY     68  55  64 S13       30.09S
PORT ANGELES   SUNNY     64  57  78 W12       30.15F
EDIZ HOOK      FAIR      59  55  86 W16G22    30.14F
PORT TOWNSEND  PTSUNNY   64  57  77 NW8       30.13S
NAS WHIDBEY    PTSUNNY   63  53  70 SW16      30.16S
ARLINGTON      PTSUNNY   66  56  70 NW6       30.14F
BURLINGTON     MOSUNNY   63  55  77 S9        30.13S
$$

WAZ020-022-039-040-504-511-512-190300-
SOUTHWEST INTERIOR

CITY           SKY/WX    TMP DP  RH WIND       PRES   REMARKS
SHELTON        PTSUNNY   73  58  59 SW17      30.10R
OLYMPIA        PTSUNNY   72  59  63 W9        30.12S
CHEHALIS       FAIR      72  59  64 VRB6      30.14S
KELSO          PTSUNNY   71  59  65 NW10G20   30.14S
VANCOUVER      MOSUNNY   77  58  51 N8        30.09F
SCAPPOOSE, OR  SUNNY     76  57  51 N12       30.10S
PORTLAND, OR   MOSUNNY   77  58  51 N9        30.10S
$$

WAZ021-516-517-190300-
WASHINGTON COAST

CITY           SKY/WX    TMP DP  RH WIND       PRES   REMARKS
FORKS          CLOUDY    61  58  90 NW6       30.19S
HOQUIAM        MOSUNNY   65  62  90 W12       30.17S
ASTORIA, OR    CLOUDY    65  57  75 NW10      30.18S
$$

WAZ019-023-024-040-567>569-190300-
CASCADE MOUNTAINS AND COLUMBIA GORGE

CITY           SKY/WX    TMP DP  RH WIND       PRES   REMARKS
STAMPEDE PASS  PTSUNNY   55  50  83 W8        30.18S
TROUTDALE, OR  MOSUNNY   78  55  44 VRB5      30.08F
HOOD RIVER, OR MOCLDY    79  50  36 W6G17     30.04S
THE DALLES, OR PTSUNNY   83  49  30 W20G26    29.98S
$$

WAZ026-027-041>044-520-521-190300-
EAST SLOPES

CITY           SKY/WX    TMP DP  RH WIND       PRES   REMARKS
OMAK           CLEAR     84  40  21 W14       29.86S
WENATCHEE      SUNNY     79  47  32 NW21G28   29.95R
ELLENSBURG     MOSUNNY   74  50  42 NW25G38   30.02R
YAKIMA         PTSUNNY   84  51  31 W10       29.95F
SUNNYSIDE ARPT   N/A     78  50  36 W12G17    29.93S
YAKIMA TC      FAIR      80  46  30 N15       29.95S
$$

WAZ028-034-035-190300-
COLUMBIA BASIN

CITY           SKY/WX    TMP DP  RH WIND       PRES   REMARKS
EPHRATA        PTCLDY    84  44  24 NW16      29.91S
MOSES LAKE     MOCLDY    87  46  24 W13       29.91F
PASCO          CLOUDY    82  51  34 NW12      29.90S
RICHLAND ARPT  CLOUDY    86  44  23 NW10G17   29.90S
HERMISTON, OR  MOCLDY    86  47  25 SW12      29.90S
$$

WAZ036>038-190300-
NORTHEAST WASHINGTON

CITY           SKY/WX    TMP DP  RH WIND       PRES   REMARKS
SPOKANE GEIGER MOCLDY    83  37  19 W15       29.95S
SPOKANE FELTS  MOCLDY    85  40  20 SW17G23   29.93S
FAIRCHILD AFB  MOCLDY    82  37  19 W17       29.95F
COEURDALENE,ID MOCLDY    82  41  23 SW12      29.94F
DEER PARK      PTCLDY    83  35  18 SW13      29.93S
$$

WAZ029>033-190300-
SOUTHEAST WASHINGTON

CITY           SKY/WX    TMP DP  RH WIND       PRES   REMARKS
PULLMAN        CLOUDY    81  35  19 W12       30.00F
LEWISTON, ID   PTCLDY    87  34  15 NW16G24   29.90F
WALLA WALLA    PTCLDY    87  45  23 SW7       29.93F
PENDLETON, OR  PTCLDY    84  41  21 W14       29.95S
$$




USA.gov is the U.S. government's official web portal to all federal, state and local government web resources and services.